Vorticity
8 9 8 9 10 10 11 11 10 9 8 8 8 9 9 9 10 10 9 10 10 10 11 10 10 10 10 9 8 7 7 7 7 6 7 8 8 7 7 7 8 8
6 8 8 9 10 10 11 11 11 10 10 9 8 8 9 9 10 10 10 10 9 9 9 9 10 10 9 10 10 9 8 7 7 7 6 6 7 8 7 6 6 7
6 6 6 7 8 9 10 10 11 11 10 9 8 7 7 7 7 8 7 7 6 5 5 5 5 6 7 7 7 7 8 8 7 6 6 5 5 5 6 5 5 4
7 5 5 5 5 7 8 8 8 9 9 8 7 6 5 5 4 5 5 5 5 4 3 4 4 4 4 5 5 5 5 6 7 7 7 6 4 4 4 5 5 4
12 9 6 5 5 6 7 8 7 6 7 7 7 7 6 6 5 4 4 4 5 6 5 5 4 5 5 5 5 5 5 4 5 6 7 8 8 6 5 5 6 7
16 16 14 11 9 7 6 6 6 6 5 6 6 6 6 7 7 6 6 5 5 5 5 5 5 5 6 6 7 6 6 6 5 5 5 6 7 8 7 6 6 7
12 15 18 19 17 16 14 14 13 12 11 10 10 9 8 7 7 6 6 6 6 5 5 5 5 5 5 6 7 7 6 6 7 6 6 7 6 6 8 7 6 6
4 5 10 14 16 14 12 11 11 11 11 11 13 14 14 13 12 11 10 9 10 10 10 9 9 8 8 8 8 8 8 8 7 7 7 8 7 6 7 7 6 6
4 3 3 3 4 3 3 4 5 6 6 6 8 10 11 12 11 12 12 12 12 10 8 8 7 7 7 8 9 9 9 9 10 10 9 8 8 8 8 8 7 6
8 9 7 4 2 2 3 3 2 5 6 7 9 9 8 7 6 7 8 8 7 5 3 3 4 6 8 10 11 11 10 10 10 10 11 11 11 10 10 9 8 8
9 11 10 9 8 7 3 -3 -6 -2 2 4 8 9 9 8 6 4 4 5 6 6 6 6 6 11 15 15 15 16 16 16 15 14 14 14 14 15 15 14 12 11
2 2 3 2 3 2 -1 -7 -9 -3 3 6 8 8 7 6 5 3 2 5 7 7 6 7 10 14 16 14 14 14 16 17 17 18 17 16 16 17 18 19 18 17
-5 -5 -1 1 2 1 -1 -4 -5 -1 5 8 10 10 7 4 1 0 2 5 7 7 6 6 11 14 12 11 12 12 12 11 10 10 10 11 11 11 13 14 16 17
1 4 5 4 3 3 5 6 3 3 6 5 3 7 9 6 1 -2 0 3 4 6 7 8 11 12 9 10 11 9 8 6 5 5 5 6 6 6 7 8 9 10
2 5 3 -1 -2 -1 0 3 3 2 5 4 0 -1 2 4 3 1 2 5 5 6 8 11 12 11 10 9 8 7 6 6 5 5 4 4 5 5 6 7 8 9
4 9 9 4 5 6 2 3 6 6 6 7 5 2 1 3 3 2 4 8 10 8 10 14 13 10 9 8 7 7 6 6 5 4 3 2 3 5 6 7 6 5
8 19 22 12 9 12 11 7 4 6 9 9 7 7 6 7 6 3 3 8 14 14 12 13 10 8 8 7 6 6 5 5 5 3 2 3 3 5 4 2 1 0
5 13 20 19 15 11 18 23 13 6 8 8 8 8 4 3 6 4 2 8 16 17 14 12 11 7 7 6 5 5 4 3 4 3 4 4 3 3 2 0 1 2
4 5 9 19 17 2 11 31 22 8 10 10 8 7 3 2 4 1 2 12 21 19 13 13 13 7 4 4 4 4 3 3 4 4 4 3 2 2 2 2 3 3
5 6 3 9 12 0 -0 10 5 3 11 12 9 9 7 6 5 2 5 15 20 18 14 13 11 5 3 4 4 4 4 4 4 4 3 1 0 1 1 2 2 2
4 7 5 5 9 0 -13 -12 -3 6 11 9 7 9 10 9 8 7 12 18 19 17 15 12 8 5 4 3 3 4 4 4 5 4 2 1 0 1 1 0 0 2
8 10 11 11 13 6 -11 -17 -14 -12 -9 -1 6 11 11 10 8 5 8 17 22 19 14 10 8 5 4 3 3 5 5 5 6 5 4 3 3 2 2 2 3 6
8 8 11 12 15 18 14 8 3 -2 -3 1 5 8 8 7 7 6 7 15 22 17 11 10 8 4 3 3 4 6 7 7 5 5 5 4 4 3 3 5 7 6
10 9 10 8 7 10 14 19 22 21 18 10 1 -2 3 8 10 7 6 14 20 15 11 9 4 1 3 6 9 9 9 7 4 4 5 4 4 5 6 6 6 3
18 15 11 9 11 12 15 22 22 17 21 22 10 2 1 2 7 16 22 24 17 10 12 12 4 5 10 11 11 9 5 5 5 5 7 7 7 7 6 4 4 3
31 28 19 15 16 14 10 11 8 5 13 18 13 11 3 -10 4 33 39 25 14 12 17 16 9 10 12 9 8 8 7 9 10 8 9 9 6 5 4 4 5 6
Height
5727 5727 5727 5727 5728 5728 5728 5729 5729 5729 5729 5730 5730 5731 5732 5732 5733 5733 5733 5734 5735 5735 5736 5737 5738 5739 5740 5741 5742 5742 5743 5743 5744 5745 5745 5746 5747 5748 5748 5749 5749 5750
5723 5724 5724 5724 5725 5725 5725 5726 5726 5726 5727 5727 5727 5728 5729 5730 5730 5731 5731 5732 5732 5733 5734 5734 5735 5736 5736 5737 5738 5738 5739 5739 5740 5740 5741 5742 5743 5744 5744 5745 5745 5746
5720 5720 5721 5721 5721 5722 5722 5723 5723 5723 5724 5724 5725 5725 5726 5726 5727 5728 5729 5729 5730 5731 5731 5732 5732 5733 5733 5734 5734 5734 5735 5735 5736 5736 5737 5737 5738 5739 5739 5740 5740 5741
5717 5717 5718 5718 5718 5719 5719 5719 5719 5720 5721 5721 5722 5722 5723 5723 5724 5725 5725 5726 5727 5728 5728 5729 5729 5730 5730 5730 5730 5731 5731 5732 5732 5732 5733 5733 5733 5734 5734 5735 5736 5736
5713 5714 5714 5715 5715 5716 5716 5716 5716 5716 5717 5718 5719 5719 5720 5720 5721 5721 5722 5722 5723 5724 5724 5725 5725 5726 5726 5726 5726 5727 5727 5727 5728 5728 5728 5729 5729 5729 5730 5730 5730 5731
5710 5710 5711 5711 5712 5712 5712 5712 5713 5713 5713 5714 5715 5716 5716 5717 5717 5718 5718 5719 5719 5720 5720 5721 5721 5721 5722 5722 5722 5722 5723 5723 5723 5724 5724 5724 5724 5724 5725 5725 5726 5726
5707 5707 5707 5708 5708 5709 5709 5709 5709 5710 5710 5710 5711 5712 5713 5713 5714 5714 5715 5715 5715 5716 5716 5716 5716 5717 5717 5718 5718 5718 5718 5719 5719 5719 5719 5719 5719 5719 5719 5720 5720 5720
5704 5704 5704 5704 5705 5705 5705 5706 5706 5706 5706 5707 5707 5708 5708 5709 5709 5710 5711 5711 5711 5711 5711 5711 5712 5712 5712 5713 5713 5713 5714 5714 5714 5715 5715 5715 5715 5714 5714 5715 5715 5715
5701 5701 5701 5701 5701 5702 5702 5702 5702 5702 5702 5703 5703 5704 5704 5705 5705 5706 5706 5707 5707 5707 5707 5707 5707 5707 5707 5708 5708 5708 5708 5708 5709 5709 5710 5710 5710 5710 5709 5709 5709 5709
5697 5697 5697 5698 5698 5698 5698 5698 5698 5698 5698 5698 5699 5699 5700 5700 5701 5701 5702 5702 5702 5702 5702 5702 5702 5702 5702 5702 5702 5702 5702 5702 5703 5703 5703 5704 5704 5704 5704 5704 5704 5704
5694 5694 5694 5694 5694 5694 5694 5693 5693 5694 5694 5693 5694 5694 5695 5695 5696 5696 5697 5697 5697 5696 5696 5696 5696 5696 5695 5695 5695 5695 5696 5696 5696 5696 5696 5697 5697 5697 5697 5698 5698 5698
5691 5691 5691 5690 5690 5690 5690 5690 5689 5689 5689 5689 5689 5689 5690 5690 5691 5691 5692 5692 5691 5691 5691 5691 5690 5690 5689 5689 5689 5689 5689 5689 5689 5689 5690 5690 5690 5690 5690 5690 5691 5691
5688 5687 5686 5686 5685 5685 5685 5684 5685 5685 5685 5685 5685 5685 5685 5685 5686 5686 5686 5686 5686 5686 5686 5685 5685 5684 5684 5684 5683 5683 5683 5683 5683 5683 5683 5684 5684 5684 5684 5684 5684 5683
5683 5682 5680 5679 5678 5678 5678 5678 5678 5679 5679 5680 5681 5681 5681 5681 5681 5681 5681 5681 5681 5681 5680 5680 5680 5679 5679 5678 5678 5678 5678 5678 5677 5677 5678 5678 5678 5678 5677 5677 5677 5676
5676 5675 5673 5671 5671 5670 5670 5671 5671 5672 5673 5674 5675 5675 5675 5676 5676 5675 5675 5675 5675 5675 5675 5675 5674 5674 5673 5673 5672 5672 5672 5672 5672 5672 5672 5672 5672 5672 5671 5671 5670 5670
5670 5670 5667 5664 5664 5664 5663 5664 5664 5665 5666 5667 5668 5669 5669 5669 5669 5669 5669 5669 5669 5669 5669 5669 5668 5668 5667 5667 5667 5666 5666 5666 5666 5666 5666 5666 5666 5666 5665 5665 5664 5663
5665 5665 5664 5660 5657 5657 5656 5656 5657 5658 5659 5660 5662 5662 5663 5663 5663 5663 5663 5663 5663 5663 5663 5663 5662 5662 5661 5661 5661 5660 5660 5660 5660 5660 5659 5659 5659 5659 5659 5658 5658 5657
5657 5658 5658 5656 5652 5651 5650 5650 5650 5652 5653 5654 5655 5656 5656 5656 5656 5656 5656 5656 5656 5656 5657 5656 5656 5655 5655 5655 5654 5654 5654 5653 5653 5653 5653 5652 5652 5652 5651 5651 5651 5650
5649 5650 5651 5650 5648 5646 5645 5644 5644 5646 5647 5649 5650 5650 5650 5650 5650 5650 5650 5650 5650 5650 5650 5650 5649 5649 5648 5648 5648 5648 5647 5647 5647 5646 5646 5646 5645 5644 5644 5643 5642 5642
5640 5642 5643 5643 5644 5643 5640 5638 5638 5639 5641 5643 5644 5644 5644 5644 5644 5644 5644 5644 5644 5644 5644 5644 5643 5642 5642 5641 5641 5641 5640 5640 5640 5640 5639 5639 5638 5637 5636 5635 5634 5633
5632 5632 5634 5636 5638 5637 5633 5631 5631 5633 5635 5637 5637 5638 5638 5638 5638 5638 5638 5638 5637 5637 5637 5637 5636 5635 5635 5635 5635 5634 5634 5634 5634 5633 5633 5632 5631 5629 5627 5626 5625 5624
5623 5623 5624 5627 5629 5628 5626 5625 5626 5627 5629 5630 5631 5631 5632 5632 5632 5633 5632 5631 5631 5631 5631 5630 5630 5629 5629 5628 5628 5627 5627 5627 5627 5626 5626 5625 5623 5621 5619 5618 5616 5614
5614 5615 5615 5617 5618 5618 5619 5620 5620 5621 5623 5624 5624 5625 5625 5626 5626 5626 5626 5625 5625 5625 5625 5625 5624 5623 5622 5622 5621 5620 5620 5620 5619 5619 5618 5617 5615 5613 5611 5609 5607 5605
5607 5608 5608 5609 5609 5609 5610 5612 5613 5614 5616 5617 5618 5618 5619 5619 5619 5619 5619 5619 5619 5619 5619 5619 5618 5617 5616 5615 5614 5613 5613 5612 5612 5611 5610 5608 5606 5604 5602 5601 5599 5596
5598 5600 5601 5602 5602 5602 5602 5604 5605 5606 5608 5610 5610 5611 5612 5612 5612 5612 5612 5612 5612 5613 5613 5612 5612 5611 5610 5609 5607 5606 5605 5604 5603 5602 5601 5599 5597 5595 5594 5591 5589 5586
5590 5592 5593 5595 5596 5596 5596 5598 5598 5599 5601 5602 5603 5604 5605 5606 5606 5606 5605 5606 5607 5607 5606 5606 5605 5604 5603 5601 5600 5598 5597 5595 5594 5592 5591 5590 5588 5586 5584 5582 5579 5576